Weather reports worldwide

Advertisment
Llerena, Spain (8336): temperature & dewpoint: 18.08.2019 07:00:00 - 24.08.2019 07:00:00 (CEST)Llerena, Spain (8336): wind speed & gusts: 18.08.2019 07:00:00 - 24.08.2019 07:00:00 (CEST)Llerena, Spain (8336): wind direction: 18.08.2019 07:00:00 - 24.08.2019 07:00:00 (CEST)Llerena, Spain (8336): reduced air pressure: 18.08.2019 07:00:00 - 24.08.2019 07:00:00 (CEST)Llerena, Spain (8336): visibility: 18.08.2019 07:00:00 - 24.08.2019 07:00:00 (CEST)Llerena, Spain (8336): sunshine duration: 18.08.2019 07:00:00 - 24.08.2019 07:00:00 (CEST)Llerena, Spain (8336): precipitation: 18.08.2019 07:00:00 - 24.08.2019 07:00:00 (CEST)
Date & Time tt [°C] td [°C] ff [km/h] ff [kn] fx [km/h] fx [kn] dd ppp [hPa] vv [km] sd [min] rr [mm]
24.08.2019 07:00:00 - - - - - - - - - - -
24.08.2019 06:00:00 24,0 10,6 24 13 34 18 S 1015,3 18 0 0,0
24.08.2019 05:00:00 23,7 11,3 25 14 36 19 S 1015,6 17 0 0,0
24.08.2019 04:00:00 23,8 10,2 3 2 24 13 WSW 1015,9 18 0 0,0
24.08.2019 03:00:00 25,3 7,4 23 13 32 17 S 1015,3 19 0 0,0
24.08.2019 02:00:00 26,5 5,9 22 12 31 17 S 1014,9 20 0 -
24.08.2019 01:00:00 27,4 6,2 18 10 26 14 SSW 1014,8 20 0 0,0
24.08.2019 00:00:00 27,5 6,2 16 9 24 13 SSW 1014,7 19 0 0,0
23.08.2019 23:00:00 28,0 6,1 16 9 29 16 S 1014,5 18 0 0,0
23.08.2019 22:00:00 29,1 7,0 22 12 29 16 S 1013,7 18 0 0,0
23.08.2019 21:00:00 30,7 7,8 17 9 23 13 S 1012,7 16 0 0,0
23.08.2019 20:00:00 32,6 8,8 7 4 16 8 NE 1012,1 20 17 -
23.08.2019 19:00:00 - - - - - - - - - - -
23.08.2019 18:00:00 34,4 6,7 8 5 20 11 WNW 1012,3 18 60 0,0
23.08.2019 17:00:00 34,4 6,7 11 6 24 13 SE 1012,7 20 60 0,0
23.08.2019 16:00:00 32,8 6,8 16 8 30 16 E 1013,6 14 59 0,0
23.08.2019 15:00:00 33,3 8,0 11 6 28 15 ESE 1014,0 16 60 0,0
23.08.2019 14:00:00 33,0 7,7 16 8 - - SE 1014,5 20 60 -
23.08.2019 13:00:00 31,3 8,3 17 9 37 20 ESE 1015,5 20 60 0,0
23.08.2019 12:00:00 30,1 8,5 22 12 32 17 ESE 1015,9 16 60 0,0
23.08.2019 11:00:00 27,8 13,8 17 9 26 14 E 1016,3 17 60 0,0
23.08.2019 10:00:00 24,2 14,6 21 11 26 14 ESE 1016,8 12 60 0,0
23.08.2019 09:00:00 23,1 14,1 14 7 31 17 ESE 1016,8 14 57 0,0
23.08.2019 08:00:00 22,1 12,3 22 12 31 17 SSE 1016,7 18 0 -
23.08.2019 07:00:00 22,7 11,1 23 12 45 24 SSE 1016,1 18 0 0,0
23.08.2019 06:00:00 23,2 9,9 37 20 51 28 S 1015,7 16 0 0,0
23.08.2019 05:00:00 22,9 12,5 28 15 37 20 S 1015,6 17 0 0,0
23.08.2019 04:00:00 24,3 12,5 26 14 37 20 S 1015,4 19 0 0,0
23.08.2019 03:00:00 23,7 14,4 26 14 37 20 S 1015,8 16 0 0,0
23.08.2019 02:00:00 24,8 13,9 29 15 39 21 S 1015,3 17 0 -
23.08.2019 01:00:00 25,6 13,5 30 16 41 22 S 1014,8 18 0 0,0
23.08.2019 00:00:00 26,6 13,7 29 15 37 20 S 1014,7 19 0 0,0
22.08.2019 23:00:00 27,6 12,7 21 12 27 14 S 1014,5 18 0 0,0
22.08.2019 22:00:00 28,4 13,2 20 11 27 14 SSW 1014,1 17 0 0,0
22.08.2019 21:00:00 29,8 12,2 15 8 24 13 S 1013,5 17 0 0,0
22.08.2019 20:00:00 31,8 9,3 9 5 22 12 E 1012,8 18 16 -
22.08.2019 19:00:00 33,3 10,6 12 6 22 12 SSE 1012,4 19 46 0,0
22.08.2019 18:00:00 33,5 10,2 10 5 24 13 ESE 1012,4 14 33 0,0
22.08.2019 17:00:00 34,4 10,9 13 7 31 17 ESE 1012,7 16 58 0,0
22.08.2019 16:00:00 33,5 9,6 16 9 29 15 E 1013,3 13 60 0,0
22.08.2019 15:00:00 32,7 8,9 19 10 29 16 E 1014,2 18 59 0,0
22.08.2019 14:00:00 31,3 12,6 15 8 30 16 E 1014,8 15 60 -
22.08.2019 13:00:00 29,7 14,2 17 9 34 18 E 1015,7 17 60 0,0
22.08.2019 12:00:00 28,7 15,6 15 8 24 13 ESE 1016,2 15 60 0,0
22.08.2019 11:00:00 27,3 15,3 14 8 21 11 E 1016,5 14 60 0,0
22.08.2019 10:00:00 26,8 15,5 9 5 29 16 SSE 1016,2 16 60 0,0
22.08.2019 09:00:00 23,7 14,7 13 7 25 13 S 1016,6 13 49 0,0
22.08.2019 08:00:00 21,7 12,2 10 5 23 12 SSW 1016,8 15 0 -
22.08.2019 07:00:00 21,6 15,2 10 5 22 12 S 1016,2 13 0 0,0
22.08.2019 06:00:00 21,7 15,3 5 3 22 12 NW 1016,2 15 0 0,0
22.08.2019 05:00:00 22,3 15,2 18 10 30 16 S 1016,3 15 0 0,0
22.08.2019 04:00:00 22,8 12,1 6 3 11 6 SSW 1016,3 17 0 0,0
22.08.2019 03:00:00 23,8 5,6 5 3 6 3 SE 1016,1 18 0 0,0
22.08.2019 02:00:00 24,1 2,9 4 2 11 6 ESE 1016,3 17 0 -
22.08.2019 01:00:00 25,3 2,1 8 4 16 8 ESE 1016,2 20 0 0,0
22.08.2019 00:00:00 24,6 2,1 6 3 10 6 ESE 1016,2 20 0 0,0
21.08.2019 23:00:00 25,8 2,5 3 1 13 7 SE 1015,6 18 0 0,0
21.08.2019 22:00:00 28,2 3,0 6 3 18 10 NNE 1014,5 20 0 0,0
21.08.2019 21:00:00 30,1 3,9 8 4 17 9 N 1013,4 18 24 0,0
21.08.2019 20:00:00 32,1 2,3 9 5 18 10 NNW 1012,6 18 60 -
21.08.2019 19:00:00 - - - - - - - - - - -
21.08.2019 18:00:00 33,8 2,7 8 4 23 12 N 1012,2 20 60 0,0
21.08.2019 17:00:00 34,3 3,9 6 3 - - ENE 1012,4 16 60 0,0
21.08.2019 16:00:00 33,0 6,2 8 4 21 11 N 1013,2 19 60 0,0
21.08.2019 15:00:00 32,8 6,8 7 4 19 10 W 1013,8 16 50 0,0
21.08.2019 14:00:00 32,3 7,1 7 4 23 13 NW 1014,0 17 60 -
21.08.2019 13:00:00 32,1 7,0 7 4 16 9 SW 1014,7 20 60 0,0
21.08.2019 12:00:00 30,0 6,5 11 6 17 9 SSW 1015,4 18 60 0,0
21.08.2019 11:00:00 28,0 8,3 10 5 24 13 SSW 1015,9 19 59 0,0
21.08.2019 10:00:00 25,3 5,5 19 10 29 16 SW 1016,2 15 56 0,0
21.08.2019 09:00:00 24,2 1,7 23 12 37 20 SW 1016,1 20 44 0,0
21.08.2019 08:00:00 22,9 -1,2 29 15 38 20 SSW 1015,8 19 0 -
21.08.2019 07:00:00 22,7 1,7 28 15 36 20 S 1015,4 19 0 0,0
21.08.2019 06:00:00 23,7 1,3 24 13 34 18 S 1015,1 20 0 0,0
21.08.2019 05:00:00 23,8 3,0 24 13 31 17 S 1015,1 19 0 0,0
21.08.2019 04:00:00 23,2 3,2 17 9 23 12 S 1015,2 18 0 0,0
21.08.2019 03:00:00 22,8 2,3 6 3 9 5 SSW 1015,5 20 0 0,0
21.08.2019 02:00:00 23,4 1,7 5 3 8 4 SW 1015,4 20 0 -
21.08.2019 01:00:00 23,9 2,7 4 2 5 3 W 1015,4 17 0 0,0
21.08.2019 00:00:00 24,4 2,5 4 2 9 5 WNW 1015,2 20 0 0,0
20.08.2019 23:00:00 25,1 2,5 4 2 9 5 NW 1014,9 14 0 0,0
20.08.2019 22:00:00 26,1 3,4 5 3 10 5 NNW 1014,3 14 0 0,0
20.08.2019 21:00:00 29,0 2,3 4 2 12 6 N 1013,2 8 29 0,0
20.08.2019 20:00:00 31,1 0,4 7 4 14 8 NW 1012,8 18 60 -
20.08.2019 19:00:00 32,2 0,2 5 3 15 8 NW 1012,4 14 60 0,0
20.08.2019 18:00:00 32,4 -2,0 6 4 17 9 NNW 1012,6 12 60 0,0
20.08.2019 17:00:00 32,3 -2,0 5 3 16 9 N 1013,0 17 60 0,0
20.08.2019 16:00:00 30,7 -4,5 9 5 15 8 E 1013,8 18 60 0,0
20.08.2019 15:00:00 30,5 -4,5 8 5 18 10 NNW 1014,4 13 60 0,0
20.08.2019 14:00:00 28,7 -3,6 5 3 15 8 ESE 1014,9 20 60 -
20.08.2019 13:00:00 26,6 1,7 5 3 15 8 NNE 1015,7 15 60 0,0
20.08.2019 12:00:00 24,2 2,9 5 3 11 6 NNE 1016,2 12 60 0,0
20.08.2019 11:00:00 21,6 5,5 4 2 10 6 N 1016,2 20 60 0,0
20.08.2019 10:00:00 18,7 5,5 4 2 10 5 N 1016,4 20 57 0,0
20.08.2019 09:00:00 14,8 4,8 4 2 11 6 WNW 1017,2 15 4 0,0
20.08.2019 08:00:00 15,2 3,9 9 5 14 8 WSW 1016,8 13 0 -
20.08.2019 07:00:00 15,2 3,9 9 5 16 9 WSW 1016,4 17 0 0,0
20.08.2019 06:00:00 15,8 3,6 10 5 18 10 WSW 1015,9 19 0 0,0
20.08.2019 05:00:00 16,2 4,8 13 7 20 11 WSW 1015,9 18 0 0,0
20.08.2019 04:00:00 17,3 5,0 13 7 19 10 WSW 1015,7 18 0 0,0
20.08.2019 03:00:00 18,0 6,2 11 6 16 9 W 1016,2 16 0 0,0
20.08.2019 02:00:00 18,7 4,5 6 3 14 7 W 1016,2 18 0 -
20.08.2019 01:00:00 19,9 6,5 10 5 23 13 NW 1015,9 19 0 0,0
20.08.2019 00:00:00 21,8 6,8 11 6 27 14 NNW 1015,2 16 0 0,0
19.08.2019 23:00:00 23,1 -2,5 10 6 20 11 W 1014,8 17 0 0,0
19.08.2019 22:00:00 - - - - - - - - - - -
19.08.2019 21:00:00 27,0 -2,7 17 9 34 19 WNW 1012,7 13 34 0,0
19.08.2019 20:00:00 29,2 -1,0 24 13 37 20 WNW 1011,9 11 60 -
19.08.2019 19:00:00 - - - - - - - - - - -
19.08.2019 18:00:00 32,2 4,1 23 12 - - NW 1011,0 16 60 0,0
19.08.2019 17:00:00 33,4 3,2 19 10 34 18 WNW 1011,0 20 60 0,0
19.08.2019 16:00:00 33,2 3,0 - - - - - 1011,8 14 60 0,0
19.08.2019 15:00:00 32,8 2,7 13 7 29 16 WNW 1012,2 16 60 0,0
19.08.2019 14:00:00 32,5 5,1 8 5 26 14 WSW 1012,5 20 60 -
19.08.2019 13:00:00 31,1 3,9 10 6 23 12 SSW 1013,0 20 60 0,0
19.08.2019 12:00:00 29,6 6,8 7 4 16 8 WNW 1013,3 19 60 0,0
19.08.2019 11:00:00 26,3 3,6 4 2 8 4 NNW 1014,1 16 60 0,0
19.08.2019 10:00:00 23,1 12,1 4 2 10 5 NNW 1014,5 18 60 0,0
19.08.2019 09:00:00 20,1 14,2 6 3 8 5 W 1015,1 15 60 0,0
19.08.2019 08:00:00 17,7 14,8 4 2 10 5 W 1016,0 18 14 -
19.08.2019 07:00:00 18,1 14,4 9 5 14 8 WSW 1015,4 20 0 0,0
19.08.2019 06:00:00 18,5 15,3 11 6 16 9 WSW 1014,9 18 0 0,0
19.08.2019 05:00:00 18,8 14,7 9 5 20 11 W 1015,1 20 0 0,0
19.08.2019 04:00:00 19,4 15,3 7 4 19 10 NW 1015,1 19 0 0,0
19.08.2019 03:00:00 20,3 15,7 10 5 16 9 W 1015,4 18 0 0,0
19.08.2019 02:00:00 21,4 16,0 6 3 24 13 WNW 1015,6 16 0 -
19.08.2019 01:00:00 22,6 15,7 13 7 32 18 NW 1015,5 20 0 0,0
19.08.2019 00:00:00 24,2 12,8 14 7 21 11 NW 1014,7 19 0 0,0
18.08.2019 23:00:00 25,5 11,7 14 7 19 11 WNW 1013,9 20 0 0,0
18.08.2019 22:00:00 26,4 8,8 12 7 27 15 NW 1013,1 20 0 0,0
18.08.2019 21:00:00 28,5 8,3 19 10 32 18 NW 1011,9 11 37 0,0
18.08.2019 20:00:00 31,1 8,1 21 11 35 19 NNW 1011,0 19 60 -
18.08.2019 19:00:00 33,5 1,3 18 10 32 17 NW 1010,6 19 60 0,0
18.08.2019 18:00:00 34,3 1,9 19 10 34 18 NW 1010,6 20 60 0,0
18.08.2019 17:00:00 34,2 0,6 17 9 - - WNW 1010,6 20 60 0,0
18.08.2019 16:00:00 34,6 2,1 17 9 31 17 WNW 1010,9 17 60 0,0
18.08.2019 15:00:00 - - - - - - - - - - -
18.08.2019 14:00:00 34,3 3,9 11 6 24 13 W 1011,4 18 60 -
18.08.2019 13:00:00 32,3 4,1 9 5 22 12 WNW 1012,3 20 60 0,0
18.08.2019 12:00:00 30,6 5,8 8 4 16 8 W 1012,8 20 60 0,0
18.08.2019 11:00:00 27,4 8,8 9 5 20 11 WNW 1013,2 20 60 0,0
18.08.2019 10:00:00 26,2 8,7 11 6 16 9 NNW 1013,1 18 60 0,0
18.08.2019 09:00:00 23,8 11,1 6 3 11 6 W 1013,0 14 60 0,0
18.08.2019 08:00:00 21,5 11,2 7 4 9 5 W 1013,1 13 8 -
18.08.2019 07:00:00 21,0 11,9 7 4 13 7 WSW 1013,2 17 0 0,0

tt = temperature
td = dewpoint
ff = wind speed
fx = gusts
dd = wind direction
ppp = reduced air pressure
vv = visibility
sd = sunshine duration
rr = precipitation

Next stations